Tracking 19909 objects as of 21-Oct-2019
HD Live streaming from Space Station
objects crossing your sky now

THEA

Track THEA now!
10-day predictions


NORAD ID: 43796
Int'l Code: 2018-099AQ
Perigee: 577.4 km
Apogee: 596.6 km
Inclination: 97.7 °
Period: 96.3 minutes
Semi major axis: 6957 km
RCS: Unknown
Launch date: December 3, 2018
Source: United States (US)
Launch site: AIR FORCE WESTERN TEST RANGE (AFWTR)
aabbcc
Your satellite tracking list
Your tracking list is empty




NASA's NSSDC Master Catalog

Two Line Element Set (TLE):
1 43796U 18099AQ  19293.19635619  .00000224  00000-0  25286-4 0  9995
2 43796  97.7330   3.8511 0013814 260.3593  99.6067 14.95818671 47887
Source of the keplerian elements: AFSPC